Hourly Data Report for May 06, 2004

TORONTO CITY
ONTARIO

43°40'00.000" N
79°24'00.000" W
112.50 m
6158355
71508
XTO

Download Data

Hourly Data (May 2004)
Hourly Data Report for May 6, 2004
TIME
LST
Temp Definition
°C
Dew Point Definition
°C
Rel Hum Definition
%
Precip. Amount Definition
mm

Wind Dir Definition
10's deg

Wind Spd Definition
km/h
Visibility Definition
km
Stn Press Definition
kPa
Hmdx Definition


Wind Chill Definition


Weather Definition


00:00 6.9 4.2 83   LegendMM LegendMM LegendMM 100.37     LegendNANA
01:00 7.5 3.7 77   LegendMM LegendMM LegendMM 100.36     LegendNANA
02:00 6.7 4.1 83   LegendMM LegendMM LegendMM 100.37     LegendNANA
03:00 6.4 4.0 85   LegendMM LegendMM LegendMM 100.36     LegendNANA
04:00 6.5 3.9 83   LegendMM LegendMM LegendMM 100.33     LegendNANA
05:00 6.5 4.0 84   LegendMM LegendMM LegendMM 100.34     LegendNANA
06:00 6.8 4.0 82   LegendMM LegendMM LegendMM 100.36     LegendNANA
07:00 7.8 4.4 79   LegendMM LegendMM LegendMM 100.32     LegendNANA
08:00 10.2 5.2 71   LegendMM LegendMM LegendMM 100.23     LegendNANA
09:00 11.3 4.9 65   LegendMM LegendMM LegendMM 100.18     LegendNANA
10:00 14.0 6.3 60   LegendMM LegendMM LegendMM 100.16     LegendNANA
11:00 15.6 6.2 54   LegendMM LegendMM LegendMM 100.07     LegendNANA
12:00 16.8 6.3 50   LegendMM LegendMM LegendMM 100.02     LegendNANA
13:00 18.2 7.0 48   LegendMM LegendMM LegendMM 99.93     LegendNANA
14:00 17.5 7.1 50   LegendMM LegendMM LegendMM 100.00     LegendNANA
15:00 17.7 8.7 56   LegendMM LegendMM LegendMM 99.94     LegendNANA
16:00 17.0 8.6 58   LegendMM LegendMM LegendMM 99.67     LegendNANA
17:00 16.7 9.9 64   LegendMM LegendMM LegendMM 99.91     LegendNANA
18:00 16.6 13.9 84   LegendMM LegendMM LegendMM 99.82     LegendNANA
19:00 17.4 13.7 79   LegendMM LegendMM LegendMM 99.87     LegendNANA
20:00 17.6 15.2 86   LegendMM LegendMM LegendMM 99.93     LegendNANA
21:00 18.2 15.1 82   LegendMM LegendMM LegendMM 99.95     LegendNANA
22:00 18.5 14.1 76   LegendMM LegendMM LegendMM 99.88     LegendNANA
23:00 17.6 13.6 77   LegendMM LegendMM LegendMM 99.99     LegendNANA

Notes on Data Quality.

Legend

  • E = Estimated
  • M = Missing
  • NA = Not Available*
  • [empty] = Indicates an unobserved value
Date modified: